7 * 24
多渠道服务支持
STARLINK-37182(NORAD编号68348)是美国SpaceX公司星链(Starlink)卫星互联网项目的一员,属于低轨通信卫星。它被部署在约550公里高度的近地轨道,依托星链星座组网,为全球提供低时延卫星互联网接入服务。作为星链第二批次组网卫星,它配备相控阵天线与氩气推进系统,可实现动态波束调度和轨道机动,支持包括宽带互联网接入、潜在手机直连等服务,是SpaceX构建全球低轨卫星通信网络的组成单元,目前在轨正常运行。
美国
(US)
| 数据来源 | 国际轨道数据 |
| 星历时间: | 2026-04-14T20:00:02+0800 5小时前 查看轨道信息 |
| 半长轴: | 6739.072km |
| 偏心率: | 0.0001378 |
| 轨道倾角: | 53.160° |
| 近地点辐角 | 62.557° |
| 升交点赤经 | 183.328° |
| 平近点角 | 124.212° |
| 近地点: | 360.006km |
| 远地点: | 361.864km |
| 周期: | 91.761分钟 |
| 每日圈数: | 15.692881 |